Location: ??????
(41.3164°N, 22.6615°E)
Time: 00:58:47
(UTC+00:00)

H-2A R/B - Visible Passes

Search period start: 22 May 2022 00:00
Search period end: 01 June 2022 00:00
Orbit: 575 x 653 km, 98.5° (Epoch: 21 May)

Date Brightness Start Highest point End Pass type
(mag) Time Alt. Az. Time Alt. Az. Time Alt. Az.
22 May 4.7 19:41:26 10° NNW 19:44:19 19° WNW 19:47:12 10° WSW visible
23 May 2.1 18:20:13 10° NNE 18:24:13 53° E 18:28:14 10° S visible
23 May 5.0 19:57:44 10° NNW 19:59:43 13° WNW 20:01:42 10° W visible
24 May 1.9 18:35:41 10° NNE 18:39:47 81° ESE 18:43:53 10° SSW visible
25 May 2.3 18:51:15 10° N 18:55:19 67° WNW 18:59:24 10° SSW visible
26 May 3.2 19:06:55 10° N 19:10:49 44° WNW 19:14:44 10° SW visible
27 May 3.9 19:22:41 10° N 19:26:16 30° WNW 19:29:52 10° SW visible
28 May 4.5 19:38:36 10° NNW 19:41:42 21° WNW 19:44:49 10° WSW visible
29 May 4.9 19:54:45 10° NNW 19:57:05 15° WNW 19:59:26 10° W visible
30 May 1.9 18:32:58 10° NNE 18:37:04 71° ESE 18:41:13 10° S visible
30 May 5.3 20:11:43 10° NW 20:12:26 10° WNW 20:13:10 10° WNW visible
31 May 2.1 18:48:29 10° N 18:52:35 76° WNW 18:56:44 10° SSW visible
